| time (UTC) | temp C | wind direction | speed KPH | gust KPH | rain 1hr cm | rain 24hr cm | rain mn cm | humidity % | barometer mb |
| 20260506004851 | 17 | 336 | 0.0 | 0.0 | 0.00 | 0.00 | 0.00 | 72 | 1016.9 |
| 20260506004349 | 17 | 346 | 0.0 | 0.0 | 0.00 | 0.00 | 0.00 | 71 | 1017.0 |
| 20260506003845 | 17 | 322 | 4.8 | 4.8 | 0.00 | 0.00 | 0.00 | 70 | 1017.1 |
| 20260506003341 | 17 | 337 | 0.0 | 0.0 | 0.00 | 0.00 | 0.00 | 70 | 1017.0 |
| 20260506002838 | 17 | 342 | 1.6 | 1.6 | 0.00 | 0.00 | 0.00 | 71 | 1016.9 |
| 20260506002334 | 17 | 339 | 0.0 | 0.0 | 0.00 | 0.00 | 0.00 | 70 | 1016.9 |
| 20260506001830 | 17 | 335 | 0.0 | 1.6 | 0.00 | 0.00 | 0.00 | 72 | 1017.0 |
| 20260506001327 | 17 | 45 | 4.8 | 4.8 | 0.00 | 0.00 | 0.00 | 71 | 1017.1 |
| 20260506000824 | 17 | 337 | 0.0 | 0.0 | 0.00 | 0.00 | 0.00 | 73 | 1017.1 |
| 20260506000323 | 17 | 342 | 1.6 | 1.6 | 0.00 | 0.00 | 0.00 | 72 | 1017.3 |
| 20260505235818 | 17 | 337 | 1.6 | 1.6 | 0.00 | 0.00 | 0.00 | 72 | 1017.3 |
| 20260505235316 | 17 | 1 | 1.6 | 4.8 | 0.00 | 0.00 | 0.00 | 73 | 1017.3 |
| 20260505234813 | 17 | 316 | 3.2 | 3.2 | 0.00 | 0.00 | 0.00 | 74 | 1017.2 |
| 20260505234311 | 17 | 2 | 3.2 | 3.2 | 0.00 | 0.00 | 0.00 | 72 | 1017.4 |
| 20260505233807 | 17 | 346 | 1.6 | 3.2 | 0.00 | 0.00 | 0.00 | 73 | 1017.4 |
| 20260505233305 | 17 | 333 | 0.0 | 1.6 | 0.00 | 0.00 | 0.00 | 73 | 1017.2 |
| 20260505232802 | 17 | 338 | 1.6 | 1.6 | 0.00 | 0.00 | 0.00 | 72 | 1017.2 |
| 20260505232300 | 17 | 336 | 0.0 | 0.0 | 0.00 | 0.00 | 0.00 | 72 | 1017.5 |
| 20260505231756 | 17 | 335 | 1.6 | 1.6 | 0.00 | 0.00 | 0.00 | 73 | 1017.5 |
| 20260505231255 | 17 | 351 | 6.4 | 8.0 | 0.00 | 0.00 | 0.00 | 73 | 1017.5 |
| 20260505230752 | 17 | 335 | 3.2 | 4.8 | 0.00 | 0.00 | 0.00 | 72 | 1017.3 |
| 20260505230249 | 17 | 339 | 6.4 | 9.7 | 0.00 | 0.00 | 0.00 | 73 | 1017.6 |
| 20260505225746 | 17 | 348 | 4.8 | 4.8 | 0.00 | 0.00 | 0.00 | 72 | 1017.3 |
| 20260505225243 | 17 | 358 | 6.4 | 8.0 | 0.00 | 0.00 | 0.00 | 72 | 1017.4 |
| 20260505224738 | 17 | 345 | 3.2 | 3.2 | 0.00 | 0.00 | 0.00 | 73 | 1017.4 |
| 20260505224236 | 17 | 353 | 4.8 | 4.8 | 0.00 | 0.00 | 0.00 | 73 | 1017.5 |
| 20260505223733 | 18 | 0 | 3.2 | 8.0 | 0.00 | 0.00 | 0.00 | 70 | 1017.4 |
| 20260505223229 | 18 | 332 | 0.0 | 0.0 | 0.00 | 0.00 | 0.00 | 69 | 1017.6 |
| 20260505222725 | 18 | 312 | 3.2 | 3.2 | 0.00 | 0.00 | 0.00 | 69 | 1017.6 |
| 20260505222221 | 18 | 339 | 0.0 | 0.0 | 0.00 | 0.00 | 0.00 | 70 | 1017.4 |
| 20260505221719 | 17 | 340 | 0.0 | 0.0 | 0.00 | 0.00 | 0.00 | 71 | 1017.5 |
| 20260505221215 | 17 | 339 | 1.6 | 1.6 | 0.00 | 0.00 | 0.00 | 71 | 1017.7 |
| 20260505220712 | 17 | 339 | 1.6 | 1.6 | 0.00 | 0.00 | 0.00 | 71 | 1017.6 |
| 20260505220210 | 17 | 343 | 0.0 | 1.6 | 0.00 | 0.00 | 0.00 | 70 | 1017.5 |
| 20260505215708 | 17 | 326 | 1.6 | 1.6 | 0.00 | 0.00 | 0.00 | 71 | 1017.6 |
| 20260505215206 | 17 | 334 | 1.6 | 1.6 | 0.00 | 0.00 | 0.00 | 72 | 1017.6 |
| 20260505214703 | 18 | 339 | 0.0 | 0.0 | 0.00 | 0.00 | 0.00 | 68 | 1017.7 |
| 20260505214200 | 17 | 337 | 0.0 | 0.0 | 0.00 | 0.00 | 0.00 | 70 | 1017.8 |
| 20260505213658 | 18 | 337 | 0.0 | 1.6 | 0.00 | 0.00 | 0.00 | 69 | 1017.6 |
| 20260505213155 | 17 | 334 | 0.0 | 0.0 | 0.00 | 0.00 | 0.00 | 70 | 1018.1 |
| 20260505212650 | 18 | 339 | 1.6 | 3.2 | 0.00 | 0.00 | 0.00 | 69 | 1017.6 |
| 20260505212148 | 18 | 327 | 1.6 | 3.2 | 0.00 | 0.00 | 0.00 | 69 | 1018.2 |
| 20260505211645 | 18 | 321 | 0.0 | 0.0 | 0.00 | 0.00 | 0.00 | 69 | 1017.8 |
| 20260505211142 | 20 | 336 | 0.0 | 1.6 | 0.00 | 0.00 | 0.00 | 65 | 1017.7 |
| 20260505210639 | 19 | 320 | 1.6 | 1.6 | 0.00 | 0.00 | 0.00 | 67 | 1018.0 |
| 20260505210135 | 18 | 331 | 1.6 | 3.2 | 0.00 | 0.00 | 0.00 | 68 | 1018.0 |
| 20260505205633 | 19 | 325 | 0.0 | 0.0 | 0.00 | 0.00 | 0.00 | 66 | 1017.8 |
| 20260505205131 | 19 | 335 | 0.0 | 0.0 | 0.00 | 0.00 | 0.00 | 66 | 1017.8 |
| 20260505204627 | 20 | 335 | 0.0 | 0.0 | 0.00 | 0.00 | 0.00 | 63 | 1018.2 |
| 20260505204126 | 20 | 333 | 0.0 | 0.0 | 0.00 | 0.00 | 0.00 | 65 | 1018.3 |
| 20260505203622 | 19 | 336 | 0.0 | 0.0 | 0.00 | 0.00 | 0.00 | 65 | 1018.1 |
| 20260505203119 | 17 | 355 | 1.6 | 1.6 | 0.00 | 0.00 | 0.00 | 70 | 1018.2 |
| 20260505202615 | 16 | 334 | 0.0 | 1.6 | 0.00 | 0.00 | 0.00 | 73 | 1018.1 |
| 20260505202111 | 16 | 336 | 1.6 | 1.6 | 0.00 | 0.00 | 0.00 | 74 | 1018.3 |
| 20260505201608 | 17 | 333 | 1.6 | 3.2 | 0.00 | 0.00 | 0.00 | 73 | 1018.4 |
| 20260505201105 | 17 | 343 | 0.0 | 1.6 | 0.00 | 0.00 | 0.00 | 71 | 1018.4 |
| 20260505200603 | 17 | 327 | 0.0 | 1.6 | 0.00 | 0.00 | 0.00 | 73 | 1018.3 |
| 20260505200100 | 16 | 335 | 0.0 | 0.0 | 0.00 | 0.00 | 0.00 | 76 | 1018.2 |
| 20260505195556 | 17 | 31 | 3.2 | 3.2 | 0.00 | 0.00 | 0.00 | 71 | 1018.3 |
| 20260505195054 | 17 | 348 | 1.6 | 1.6 | 0.00 | 0.00 | 0.00 | 71 | 1018.3 |
| 20260505194550 | 17 | 345 | 0.0 | 0.0 | 0.00 | 0.00 | 0.00 | 72 | 1018.4 |
| 20260505194046 | 17 | 335 | 0.0 | 0.0 | 0.00 | 0.00 | 0.00 | 72 | 1018.5 |
| 20260505193543 | 16 | 339 | 0.0 | 0.0 | 0.00 | 0.00 | 0.00 | 73 | 1018.5 |
| 20260505193040 | 16 | 337 | 0.0 | 0.0 | 0.00 | 0.00 | 0.00 | 74 | 1018.5 |
| 20260505192539 | 17 | 339 | 1.6 | 1.6 | 0.00 | 0.00 | 0.00 | 73 | 1018.5 |
| 20260505192036 | 17 | 341 | 0.0 | 0.0 | 0.00 | 0.00 | 0.00 | 72 | 1018.5 |
| 20260505191534 | 16 | 336 | 0.0 | 1.6 | 0.00 | 0.00 | 0.00 | 73 | 1018.5 |
| 20260505191032 | 16 | 338 | 0.0 | 0.0 | 0.00 | 0.00 | 0.00 | 74 | 1018.5 |
| 20260505190526 | 16 | 335 | 0.0 | 0.0 | 0.00 | 0.00 | 0.00 | 76 | 1018.4 |
| 20260505190023 | 16 | 336 | 0.0 | 0.0 | 0.00 | 0.00 | 0.00 | 76 | 1018.5 |
| 20260505185520 | 16 | 341 | 0.0 | 0.0 | 0.00 | 0.00 | 0.00 | 77 | 1018.5 |
| 20260505185016 | 16 | 340 | 0.0 | 0.0 | 0.00 | 0.00 | 0.00 | 77 | 1018.5 |
| 20260505184513 | 15 | 340 | 0.0 | 0.0 | 0.00 | 0.00 | 0.00 | 77 | 1018.6 |
| 20260505184009 | 15 | 332 | 0.0 | 0.0 | 0.00 | 0.00 | 0.00 | 78 | 1018.7 |
| 20260505183506 | 15 | 339 | 0.0 | 0.0 | 0.00 | 0.00 | 0.00 | 78 | 1018.6 |
| 20260505183004 | 15 | 336 | 0.0 | 0.0 | 0.00 | 0.00 | 0.00 | 77 | 1018.5 |
| 20260505182500 | 15 | 340 | 0.0 | 0.0 | 0.00 | 0.00 | 0.00 | 78 | 1018.7 |
| 20260505181956 | 15 | 326 | 0.0 | 1.6 | 0.00 | 0.00 | 0.00 | 79 | 1018.5 |
| 20260505181453 | 15 | 329 | 1.6 | 1.6 | 0.00 | 0.00 | 0.00 | 80 | 1018.3 |
| 20260505180950 | 15 | 340 | 0.0 | 0.0 | 0.00 | 0.00 | 0.00 | 80 | 1018.6 |
| 20260505180446 | 15 | 323 | 1.6 | 1.6 | 0.00 | 0.00 | 0.00 | 80 | 1018.4 |
| 20260505175943 | 15 | 330 | 0.0 | 1.6 | 0.00 | 0.00 | 0.00 | 80 | 1018.4 |
| 20260505175439 | 15 | 333 | 0.0 | 1.6 | 0.00 | 0.00 | 0.00 | 80 | 1018.3 |
| 20260505174936 | 15 | 333 | 0.0 | 1.6 | 0.00 | 0.00 | 0.00 | 79 | 1018.3 |
| 20260505174434 | 15 | 333 | 0.0 | 0.0 | 0.00 | 0.00 | 0.00 | 80 | 1018.3 |
| 20260505173929 | 14 | 331 | 0.0 | 0.0 | 0.00 | 0.00 | 0.00 | 81 | 1018.4 |
| 20260505173426 | 15 | 340 | 0.0 | 0.0 | 0.00 | 0.00 | 0.00 | 80 | 1018.4 |
| 20260505172923 | 15 | 340 | 0.0 | 1.6 | 0.00 | 0.00 | 0.00 | 80 | 1018.2 |
| 20260505172422 | 15 | 336 | 1.6 | 1.6 | 0.00 | 0.00 | 0.00 | 80 | 1018.3 |
| 20260505171920 | 15 | 342 | 0.0 | 0.0 | 0.00 | 0.00 | 0.00 | 80 | 1018.3 |
| 20260505171418 | 15 | 331 | 0.0 | 0.0 | 0.00 | 0.00 | 0.00 | 79 | 1018.1 |
| 20260505170914 | 15 | 334 | 0.0 | 0.0 | 0.00 | 0.00 | 0.00 | 79 | 1018.2 |
| 20260505170411 | 15 | 334 | 0.0 | 0.0 | 0.00 | 0.00 | 0.00 | 80 | 1018.3 |
| 20260505165906 | 14 | 320 | 1.6 | 1.6 | 0.00 | 0.00 | 0.00 | 81 | 1018.1 |
| 20260505165403 | 14 | 335 | 0.0 | 1.6 | 0.00 | 0.00 | 0.00 | 81 | 1018.2 |
| 20260505164858 | 14 | 338 | 0.0 | 0.0 | 0.00 | 0.00 | 0.00 | 81 | 1018.1 |
| 20260505164355 | 15 | 330 | 0.0 | 1.6 | 0.00 | 0.00 | 0.00 | 81 | 1018.1 |
| 20260505163853 | 14 | 337 | 0.0 | 0.0 | 0.00 | 0.00 | 0.00 | 81 | 1018.1 |
| 20260505163352 | 14 | 286 | 1.6 | 1.6 | 0.00 | 0.00 | 0.00 | 81 | 1017.8 |
| 20260505162850 | 14 | 333 | 0.0 | 0.0 | 0.00 | 0.00 | 0.00 | 82 | 1017.8 |
| 20260505162346 | 14 | 331 | 0.0 | 1.6 | 0.00 | 0.00 | 0.00 | 83 | 1018.0 |
| 20260505161843 | 13 | 322 | 0.0 | 1.6 | 0.00 | 0.00 | 0.00 | 85 | 1017.8 |
| 20260505161340 | 13 | 332 | 1.6 | 1.6 | 0.00 | 0.00 | 0.00 | 85 | 1018.1 |
| 20260505160837 | 13 | 340 | 0.0 | 1.6 | 0.00 | 0.00 | 0.00 | 86 | 1018.1 |
| 20260505160335 | 13 | 87 | 4.8 | 4.8 | 0.00 | 0.00 | 0.00 | 85 | 1017.8 |
| 20260505153314 | 12 | 333 | 0.0 | 1.6 | 0.00 | 0.00 | 0.00 | 88 | 1018.0 |
| 20260505152811 | 12 | 334 | 1.6 | 1.6 | 0.00 | 0.00 | 0.00 | 88 | 1017.8 |
| 20260505152308 | 13 | 340 | 0.0 | 0.0 | 0.00 | 0.00 | 0.00 | 88 | 1017.7 |
| 20260505151802 | 12 | 335 | 0.0 | 0.0 | 0.00 | 0.00 | 0.00 | 88 | 1018.0 |
| 20260505151259 | 12 | 335 | 0.0 | 0.0 | 0.00 | 0.00 | 0.00 | 89 | 1017.8 |
| 20260505150756 | 12 | 329 | 0.0 | 1.6 | 0.00 | 0.00 | 0.00 | 89 | 1017.7 |
| 20260505150253 | 12 | 329 | 0.0 | 0.0 | 0.00 | 0.00 | 0.00 | 89 | 1017.5 |
| 20260505140223 | 12 | 335 | 1.6 | 1.6 | 0.00 | 0.00 | 0.00 | 91 | 1016.9 |
| 20260505130147 | 12 | 331 | 0.0 | 1.6 | 0.00 | 0.00 | 0.00 | 90 | 1016.9 |
| 20260505124637 | 12 | 341 | 1.6 | 3.2 | 0.00 | 0.00 | 0.00 | 89 | 1016.7 |
| 20260505124133 | 12 | 299 | 1.6 | 1.6 | 0.00 | 0.00 | 0.00 | 89 | 1016.6 |
| 20260505123629 | 12 | 322 | 1.6 | 1.6 | 0.00 | 0.00 | 0.00 | 89 | 1016.6 |
| 20260505123126 | 12 | 358 | 1.6 | 3.2 | 0.00 | 0.00 | 0.00 | 89 | 1016.5 |
| 20260505122623 | 12 | 341 | 0.0 | 0.0 | 0.00 | 0.00 | 0.00 | 89 | 1016.8 |
| 20260505122120 | 12 | 327 | 0.0 | 0.0 | 0.00 | 0.00 | 0.00 | 88 | 1016.5 |
| 20260505121617 | 12 | 333 | 0.0 | 0.0 | 0.00 | 0.00 | 0.00 | 88 | 1016.6 |
| 20260505121114 | 12 | 339 | 0.0 | 0.0 | 0.00 | 0.00 | 0.00 | 88 | 1016.4 |
| 20260505120610 | 12 | 338 | 0.0 | 1.6 | 0.00 | 0.00 | 0.00 | 88 | 1016.6 |
| 20260505120106 | 12 | 340 | 1.6 | 1.6 | 0.00 | 0.00 | 0.00 | 88 | 1016.8 |
| 20260505115600 | 12 | 339 | 1.6 | 1.6 | 0.00 | 0.00 | 0.00 | 88 | 1016.3 |
| 20260505115058 | 12 | 328 | 1.6 | 1.6 | 0.00 | 0.00 | 0.00 | 88 | 1016.5 |
| 20260505114555 | 12 | 262 | 1.6 | 3.2 | 0.00 | 0.00 | 0.00 | 88 | 1016.5 |
| 20260505114051 | 12 | 275 | 1.6 | 3.2 | 0.00 | 0.00 | 0.00 | 88 | 1016.6 |
| 20260505113547 | 12 | 332 | 0.0 | 0.0 | 0.00 | 0.00 | 0.00 | 87 | 1016.7 |
| 20260505113044 | 12 | 332 | 1.6 | 1.6 | 0.00 | 0.00 | 0.00 | 87 | 1016.4 |
| 20260505112540 | 12 | 335 | 0.0 | 0.0 | 0.00 | 0.00 | 0.00 | 87 | 1016.3 |
| 20260505112039 | 12 | 327 | 0.0 | 1.6 | 0.00 | 0.00 | 0.00 | 87 | 1016.4 |
| 20260505111532 | 12 | 335 | 0.0 | 0.0 | 0.00 | 0.00 | 0.00 | 87 | 1016.6 |
| 20260505111029 | 12 | 330 | 0.0 | 0.0 | 0.00 | 0.00 | 0.00 | 87 | 1016.4 |
| 20260505110525 | 12 | 331 | 0.0 | 1.6 | 0.00 | 0.00 | 0.00 | 87 | 1016.4 |
| 20260505101958 | 12 | 323 | 0.0 | 1.6 | 0.00 | 0.00 | 0.00 | 86 | 1016.3 |
| 20260505101455 | 12 | 330 | 0.0 | 1.6 | 0.00 | 0.00 | 0.00 | 86 | 1016.0 |
| 20260505100952 | 12 | 333 | 0.0 | 1.6 | 0.00 | 0.00 | 0.00 | 86 | 1016.3 |
| 20260505100449 | 12 | 325 | 1.6 | 1.6 | 0.00 | 0.00 | 0.00 | 86 | 1016.2 |
| 20260505095945 | 12 | 330 | 0.0 | 1.6 | 0.00 | 0.00 | 0.00 | 86 | 1016.0 |
| 20260505095442 | 12 | 332 | 0.0 | 1.6 | 0.00 | 0.00 | 0.00 | 86 | 1016.1 |
| 20260505094938 | 12 | 331 | 0.0 | 1.6 | 0.00 | 0.00 | 0.00 | 86 | 1016.2 |
| 20260505094435 | 12 | 339 | 0.0 | 0.0 | 0.00 | 0.00 | 0.00 | 86 | 1015.9 |
| 20260505093931 | 12 | 325 | 1.6 | 1.6 | 0.00 | 0.00 | 0.00 | 87 | 1016.0 |
| 20260505093428 | 12 | 337 | 0.0 | 0.0 | 0.00 | 0.00 | 0.00 | 87 | 1016.0 |
| 20260505092925 | 12 | 335 | 0.0 | 1.6 | 0.00 | 0.00 | 0.00 | 87 | 1016.1 |
| 20260505092423 | 12 | 338 | 1.6 | 1.6 | 0.00 | 0.00 | 0.00 | 87 | 1016.1 |
| 20260505091920 | 12 | 327 | 1.6 | 1.6 | 0.00 | 0.00 | 0.00 | 87 | 1016.0 |
| 20260505091418 | 12 | 333 | 0.0 | 1.6 | 0.00 | 0.00 | 0.00 | 86 | 1015.7 |
| 20260505090916 | 12 | 329 | 1.6 | 1.6 | 0.00 | 0.00 | 0.00 | 85 | 1015.7 |
| 20260505090414 | 13 | 332 | 0.0 | 1.6 | 0.00 | 0.00 | 0.00 | 85 | 1015.8 |
| 20260505085911 | 13 | 341 | 0.0 | 0.0 | 0.00 | 0.00 | 0.00 | 85 | 1015.7 |
| 20260505085409 | 13 | 334 | 1.6 | 1.6 | 0.00 | 0.00 | 0.00 | 84 | 1015.5 |
| 20260505084906 | 13 | 337 | 1.6 | 1.6 | 0.00 | 0.00 | 0.00 | 84 | 1015.7 |
| 20260505084405 | 13 | 335 | 0.0 | 0.0 | 0.00 | 0.00 | 0.00 | 84 | 1015.8 |
| 20260505083902 | 13 | 333 | 1.6 | 3.2 | 0.00 | 0.00 | 0.00 | 83 | 1015.7 |
| 20260505083359 | 13 | 229 | 1.6 | 3.2 | 0.00 | 0.00 | 0.00 | 84 | 1015.7 |
| 20260505082855 | 13 | 296 | 1.6 | 1.6 | 0.00 | 0.00 | 0.00 | 84 | 1015.6 |
| 20260505082351 | 13 | 325 | 1.6 | 1.6 | 0.00 | 0.00 | 0.00 | 84 | 1015.6 |
| 20260505081848 | 13 | 315 | 1.6 | 1.6 | 0.00 | 0.00 | 0.00 | 84 | 1015.6 |
| 20260505081345 | 13 | 330 | 1.6 | 1.6 | 0.00 | 0.00 | 0.00 | 84 | 1015.4 |
| 20260505080842 | 13 | 325 | 1.6 | 1.6 | 0.00 | 0.00 | 0.00 | 84 | 1015.6 |
| 20260505080338 | 13 | 330 | 1.6 | 1.6 | 0.00 | 0.00 | 0.00 | 84 | 1015.5 |
| 20260505075833 | 13 | 343 | 1.6 | 1.6 | 0.00 | 0.00 | 0.00 | 85 | 1015.2 |
| 20260505075330 | 13 | 336 | 0.0 | 0.0 | 0.00 | 0.00 | 0.00 | 85 | 1015.5 |
| 20260505074828 | 13 | 330 | 1.6 | 1.6 | 0.00 | 0.00 | 0.00 | 85 | 1015.3 |
| 20260505074325 | 13 | 338 | 0.0 | 0.0 | 0.00 | 0.00 | 0.00 | 85 | 1015.1 |
| 20260505073822 | 13 | 340 | 1.6 | 1.6 | 0.00 | 0.00 | 0.00 | 85 | 1015.3 |
| 20260505073320 | 13 | 329 | 1.6 | 1.6 | 0.00 | 0.00 | 0.00 | 84 | 1014.9 |
| 20260505072817 | 13 | 331 | 1.6 | 1.6 | 0.00 | 0.00 | 0.00 | 84 | 1015.0 |
| 20260505072313 | 13 | 339 | 0.0 | 0.0 | 0.00 | 0.00 | 0.00 | 84 | 1015.0 |
| 20260505071809 | 13 | 337 | 0.0 | 0.0 | 0.00 | 0.00 | 0.00 | 84 | 1014.8 |
| 20260505071306 | 13 | 334 | 0.0 | 1.6 | 0.00 | 0.00 | 0.00 | 83 | 1014.9 |
| 20260505070804 | 13 | 335 | 0.0 | 0.0 | 0.00 | 0.00 | 0.00 | 83 | 1015.0 |
| 20260505070300 | 13 | 335 | 0.0 | 0.0 | 0.00 | 0.00 | 0.00 | 82 | 1014.6 |
| 20260505065755 | 14 | 347 | 0.0 | 1.6 | 0.00 | 0.00 | 0.00 | 82 | 1014.8 |
| 20260505065252 | 14 | 333 | 0.0 | 1.6 | 0.00 | 0.00 | 0.00 | 81 | 1014.8 |
| 20260505064749 | 15 | 332 | 1.6 | 1.6 | 0.00 | 0.00 | 0.00 | 81 | 1014.5 |
| 20260505064246 | 15 | 88 | 1.6 | 3.2 | 0.00 | 0.00 | 0.00 | 82 | 1014.4 |
| 20260505063744 | 15 | 337 | 0.0 | 0.0 | 0.00 | 0.00 | 0.00 | 81 | 1014.4 |
| 20260505063240 | 15 | 340 | 1.6 | 1.6 | 0.00 | 0.00 | 0.00 | 81 | 1014.3 |
| 20260505062736 | 15 | 337 | 0.0 | 1.6 | 0.00 | 0.00 | 0.00 | 80 | 1014.3 |
| 20260505062234 | 15 | 326 | 0.0 | 0.0 | 0.00 | 0.00 | 0.00 | 80 | 1014.4 |
| 20260505061731 | 15 | 325 | 1.6 | 1.6 | 0.00 | 0.00 | 0.00 | 79 | 1014.2 |
| 20260505061229 | 16 | 332 | 0.0 | 0.0 | 0.00 | 0.00 | 0.00 | 79 | 1014.3 |
| 20260505060726 | 16 | 333 | 0.0 | 0.0 | 0.00 | 0.00 | 0.00 | 77 | 1013.8 |
| 20260505060223 | 16 | 334 | 0.0 | 0.0 | 0.00 | 0.00 | 0.00 | 77 | 1013.9 |
| 20260505055718 | 16 | 336 | 0.0 | 0.0 | 0.00 | 0.00 | 0.00 | 77 | 1013.8 |
| 20260505055215 | 17 | 335 | 0.0 | 0.0 | 0.00 | 0.00 | 0.00 | 77 | 1013.8 |
| 20260505054712 | 17 | 339 | 0.0 | 0.0 | 0.00 | 0.00 | 0.00 | 76 | 1014.0 |
| 20260505054210 | 17 | 334 | 0.0 | 0.0 | 0.00 | 0.00 | 0.00 | 75 | 1013.8 |
| 20260505053708 | 17 | 356 | 0.0 | 1.6 | 0.00 | 0.00 | 0.00 | 75 | 1014.0 |
| 20260505053204 | 17 | 335 | 1.6 | 3.2 | 0.00 | 0.00 | 0.00 | 75 | 1013.7 |
| 20260505052701 | 17 | 330 | 1.6 | 1.6 | 0.00 | 0.00 | 0.00 | 75 | 1013.9 |
| 20260505052158 | 17 | 316 | 1.6 | 1.6 | 0.00 | 0.00 | 0.00 | 74 | 1013.6 |
| 20260505051656 | 17 | 342 | 1.6 | 1.6 | 0.00 | 0.00 | 0.00 | 75 | 1013.6 |
| 20260505051154 | 17 | 335 | 0.0 | 0.0 | 0.00 | 0.00 | 0.00 | 75 | 1013.7 |
| 20260505050651 | 18 | 342 | 0.0 | 1.6 | 0.00 | 0.00 | 0.00 | 75 | 1013.5 |
| 20260505050149 | 18 | 334 | 0.0 | 0.0 | 0.00 | 0.00 | 0.00 | 74 | 1013.6 |
| 20260505041619 | 17 | 335 | 0.0 | 0.0 | 0.00 | 0.00 | 0.00 | 79 | 1013.0 |
| 20260505041116 | 17 | 337 | 0.0 | 0.0 | 0.00 | 0.00 | 0.00 | 79 | 1012.9 |
| 20260505040613 | 17 | 335 | 0.0 | 1.6 | 0.00 | 0.00 | 0.00 | 80 | 1012.6 |
| 20260505040110 | 18 | 335 | 0.0 | 0.0 | 0.00 | 0.00 | 0.00 | 79 | 1012.8 |
| 20260505035606 | 18 | 335 | 0.0 | 0.0 | 0.00 | 0.00 | 0.00 | 79 | 1012.5 |
| 20260505035103 | 18 | 337 | 0.0 | 0.0 | 0.00 | 0.00 | 0.00 | 78 | 1012.6 |
| 20260505034600 | 18 | 335 | 0.0 | 0.0 | 0.00 | 0.00 | 0.00 | 77 | 1012.6 |
| 20260505034056 | 18 | 338 | 0.0 | 0.0 | 0.00 | 0.00 | 0.00 | 76 | 1012.4 |
| 20260505033553 | 19 | 336 | 0.0 | 0.0 | 0.00 | 0.00 | 0.00 | 75 | 1012.3 |
| 20260505033052 | 19 | 334 | 0.0 | 0.0 | 0.00 | 0.00 | 0.00 | 75 | 1012.2 |
| 20260505032549 | 19 | 340 | 0.0 | 0.0 | 0.00 | 0.00 | 0.00 | 74 | 1012.3 |
| 20260505032045 | 19 | 311 | 1.6 | 1.6 | 0.00 | 0.00 | 0.00 | 74 | 1012.2 |
| 20260505031543 | 20 | 340 | 0.0 | 1.6 | 0.00 | 0.00 | 0.00 | 74 | 1012.1 |
| 20260505031039 | 20 | 331 | 0.0 | 1.6 | 0.00 | 0.00 | 0.00 | 73 | 1012.2 |
| 20260505030536 | 20 | 336 | 0.0 | 0.0 | 0.00 | 0.00 | 0.00 | 73 | 1012.2 |
| 20260505030032 | 20 | 332 | 0.0 | 0.0 | 0.00 | 0.00 | 0.00 | 73 | 1012.1 |
| 20260505025528 | 20 | 356 | 1.6 | 1.6 | 0.00 | 0.00 | 0.00 | 71 | 1011.9 |
| 20260505025027 | 20 | 335 | 1.6 | 1.6 | 0.00 | 0.00 | 0.00 | 71 | 1011.9 |
| 20260505024524 | 21 | 332 | 0.0 | 0.0 | 0.00 | 0.00 | 0.00 | 70 | 1012.0 |
| 20260505024021 | 21 | 336 | 0.0 | 0.0 | 0.00 | 0.00 | 0.00 | 69 | 1012.1 |
| 20260505023518 | 21 | 359 | 0.0 | 1.6 | 0.00 | 0.00 | 0.00 | 68 | 1012.0 |
| 20260505023015 | 21 | 312 | 1.6 | 3.2 | 0.00 | 0.00 | 0.00 | 68 | 1011.9 |
| 20260505022513 | 21 | 338 | 0.0 | 0.0 | 0.00 | 0.00 | 0.00 | 68 | 1012.0 |
| 20260505022010 | 21 | 298 | 3.2 | 8.0 | 0.00 | 0.00 | 0.00 | 67 | 1011.9 |
| 20260505021506 | 21 | 348 | 1.6 | 1.6 | 0.00 | 0.00 | 0.00 | 66 | 1011.8 |
| 20260505021003 | 22 | 313 | 1.6 | 1.6 | 0.00 | 0.00 | 0.00 | 65 | 1012.0 |
| 20260505020457 | 22 | 208 | 3.2 | 4.8 | 0.00 | 0.00 | 0.00 | 64 | 1011.8 |
| 20260505015954 | 23 | 318 | 3.2 | 3.2 | 0.00 | 0.00 | 0.00 | 61 | 1011.9 |
| 20260505015452 | 23 | 330 | 0.0 | 1.6 | 0.00 | 0.00 | 0.00 | 61 | 1012.0 |
| 20260505014949 | 23 | 337 | 0.0 | 0.0 | 0.00 | 0.00 | 0.00 | 60 | 1011.7 |
| 20260505014445 | 24 | 326 | 1.6 | 3.2 | 0.00 | 0.00 | 0.00 | 58 | 1012.0 |
| 20260505013943 | 23 | 335 | 0.0 | 0.0 | 0.00 | 0.00 | 0.00 | 58 | 1011.8 |
| 20260505013440 | 23 | 198 | 3.2 | 4.8 | 0.00 | 0.00 | 0.00 | 60 | 1012.1 |
| 20260505012937 | 23 | 330 | 1.6 | 1.6 | 0.00 | 0.00 | 0.00 | 60 | 1012.0 |
| 20260505012435 | 23 | 328 | 1.6 | 1.6 | 0.00 | 0.00 | 0.00 | 58 | 1012.1 |
| 20260505011932 | 25 | 324 | 3.2 | 3.2 | 0.00 | 0.00 | 0.00 | 56 | 1012.2 |
| 20260505011428 | 25 | 316 | 3.2 | 3.2 | 0.00 | 0.00 | 0.00 | 56 | 1012.0 |
| 20260505010925 | 25 | 351 | 0.0 | 1.6 | 0.00 | 0.00 | 0.00 | 56 | 1012.3 |
| 20260505010420 | 24 | 301 | 3.2 | 4.8 | 0.00 | 0.00 | 0.00 | 58 | 1012.3 |
| 20260505005916 | 24 | 309 | 1.6 | 3.2 | 0.00 | 0.00 | 0.00 | 59 | 1012.2 |
| 20260505005414 | 25 | 328 | 1.6 | 3.2 | 0.00 | 0.00 | 0.00 | 54 | 1012.2 |